Regional Weather Roundup
Issued by NWS

Home | Current Version | Previous Version | Graphics & Text | Print | Product List | Glossary On
Versions: 1 2 3 4 5 6 7 8 9 10 11 12 13 14 15 16 17 18 19 20 21 22 23 24 25 26 27 28 29 30 31 32 33 34 35 36 37 38 39 40 41 42 43 44 45 46 47 48 49 50
000
ASUS43 KFSD 300502
RWRSD

WEATHER ROUNDUP FOR SOUTH DAKOTA
NATIONAL WEATHER SERVICE SIOUX FALLS SD
1200 AM CDT THU OCT 30 2014

NOTE: "FAIR" INDICATES FEW OR NO CLOUDS BELOW 12,000 FEET WITH NO
SIGNIFICANT WEATHER AND/OR OBSTRUCTIONS TO VISIBILITY.


SDZ001>005-009-010-012>017-300600-
NORTHWEST AND NORTH CENTRAL SOUTH DAKOTA

CITY           SKY/WX    TMP DP  RH WIND       PRES   REMARKS
BUFFALO          N/A     38  33  82 W13       30.00R
FAITH            N/A     45  36  70 W13       30.03R
MOBRIDGE       PTCLDY    40  32  73 NW3       29.95R
$$

SDZ012>016-024>037-041>051-057-063-072>074-300600-
SOUTHWEST AND SOUTH CENTRAL SOUTH DAKOTA

CITY           SKY/WX    TMP DP  RH WIND       PRES   REMARKS
RAPID CTY ARPT CLEAR     42  33  70 NW10      30.10R
PIERRE         CLEAR     41  32  70 NW8       29.98S
CUSTER         CLEAR     45  25  45 N6        30.14R
ELLSWORTH AFB  CLEAR     37  32  80 W6        30.09R
PHILIP         CLEAR     35  28  75 SW7       30.05S WCI  29
PINE RIDGE     MOCLDY    38  28  67 CALM      30.11S
SPEARFISH      FAIR      46  32  57 W10       30.14R
WINNER         FAIR      47  27  45 W10       30.00S
$$

SDZ004>011-016>023-039-040-300600-
NORTHEAST SOUTH DAKOTA

CITY           SKY/WX    TMP DP  RH WIND       PRES   REMARKS
ABERDEEN       CLOUDY    46  36  68 N3        29.96F
WATERTOWN      CLOUDY    42  36  79 E3        29.98F
SISSETON         N/A     39  38  96 CALM      30.01R
$$

SDZ017-020-022-023-036>040-048>070-300600-
SOUTHEAST SOUTH DAKOTA

CITY           SKY/WX    TMP DP  RH WIND       PRES   REMARKS
SIOUX FALLS    CLOUDY    47  32  56 S9        29.99F
HURON          CLOUDY    46  33  60 S6        29.95F
CHAMBERLAIN    CLEAR     39  31  71 W7        29.98R
MITCHELL       CLOUDY    46  34  62 S9        29.97F
YANKTON        CLOUDY    46  32  57 E5        30.00F
$$

ABBREVIATIONS USED IN REMARKS
   TC - TEMPERATURE IN CELSIUS
  WCI - WIND CHILL INDEX
   HX - HEAT INDEX
  VSB - VISIBILITY




USA.gov is the U.S. government's official web portal to all federal, state and local government web resources and services.